This demonstration page uses our WeatherBlox Daily Observations layout. Learn more.

39.92423, -83.80882

Hourly Observations for June 30, 2019

Temp ( °F °C ) Dew Point ( °F °C ) Humidity (%) Winds ( mph kmh ) Pressure ( in mb ) Visibility ( mi km ) Precip ( " mm )
12:56 am 00:56 Clear 77 25.1 68 20.1 74 74 WSW 6 9 30.04 1017 10 16.0934 0 0
1:56 am 01:56 Clear 77 25.2 68 19.8 72 72 W 7 11 30.03 1017 10 16.0934 0 0
2:56 am 02:56 Clear 78 25.3 67 19.6 71 71 W 8 13 30.01 1016 10 16.0934 0 0
3:56 am 03:56 Clear 76 24.6 68 19.8 75 75 WNW 5 7 30.01 1016 10 16.0934 0 0
4:56 am 04:56 Clear 75 23.9 68 19.8 78 78 NW 5 7 30.01 1016 10 16.0934 0 0
5:56 am 05:56 Clear 71 21.8 67 19.3 86 86 WSW 3 6 30.02 1017 10 16.0934 0 0
6:56 am 06:56 Sunny 69 20.8 67 19.4 92 92 SSW 3 6 30.03 1017 10 16.0934 0 0
7:56 am 07:56 Sunny 75 24 69 20.3 80 80 NW 7 11 30.04 1017 10 16.0934 0 0
8:56 am 08:56 Sunny 78 25.4 69 20.4 74 74 NW 7 11 30.05 1018 10 16.0934 0 0
9:56 am 09:56 Sunny 80 26.8 67 19.6 65 65 WNW 7 11 30.05 1018 10 16.0934 0 0
10:56 am 10:56 Sunny 82 27.9 67 19.4 60 60 NW 8 13 30.04 1017 10 16.0934 0 0
11:56 am 11:56 Sunny 84 29.1 67 19.4 56 56 NNW 8 13 30.04 1017 10 16.0934 0 0
12:56 pm 12:56 Sunny 86 29.9 66 18.9 52 52 NW 8 13 30.03 1017 10 16.0934 0 0
1:56 pm 13:56 Sunny 87 30.7 65 18.1 47 47 N 6 9 30.01 1016 10 16.0934 0 0
2:56 pm 14:56 Mostly Sunny 88 31.3 64 17.6 44 44 NNW 9 15 30.01 1016 10 16.0934 0 0
3:56 pm 15:56 Mostly Sunny 88 31.2 63 17.1 43 43 NNW 8 13 29.98 1015 10 16.0934 0 0
4:56 pm 16:56 Sunny 89 31.6 60 15.5 38 38 NNW 9 15 29.96 1015 10 16.0934 0 0
5:56 pm 17:56 Sunny 89 31.4 61 16.1 40 40 N 8 13 29.95 1014 10 16.0934 0 0
6:56 pm 18:56 Sunny 89 31.4 60 15.3 38 38 N 6 9 29.96 1015 10 16.0934 0 0
7:56 pm 19:56 Partly Cloudy 87 30.3 61 16.3 43 43 N 7 11 29.97 1015 10 16.0934 0 0
8:56 pm 20:56 Sunny 81 27.4 63 17.2 54 54 Calm 29.95 1014 10 16.0934 0 0
9:56 pm 21:56 Clear 74 23.3 66 18.8 76 76 Calm 29.96 1015 10 16.0934 0 0
10:56 pm 22:56 Clear 76 24.7 65 18.4 68 68 Calm 29.99 1016 10 16.0934 0 0
11:56 pm 23:56 Clear 75 23.8 64 17.5 68 68 NNE 3 6 30.02 1017 10 16.0934 0 0

Powered by AerisWeather